COSMOS 2251 DEB, 37483

Orbit data source: Space-Track

COSMOS 2251 DEB, 37483 is space debris in LEO originally from a launch on Wed, 16 Jun 1993 UTC launched from the Plesetsk Missile And Space Complex (PKMTR). The debris from Iridium 33, an American commercial communications satellite, has been tracked extensively since its accidental collision with the defunct Russian satellite Cosmos 2251 in 2009. This event, occurring at high speed in low Earth orbit (LEO), generated thousands of pieces of space debris, significantly increasing the risk of further collisions. The Iridium 33 debris cloud has impacted space traffic management and orbital debris mitigation strategies, making it a subject of ongoing study in space situational awareness.

Loading next visibility...
Identifier
37483, 1993-036BLL
Orbit
LEO
Country
Flag of CISCIS
Related business
Manufacturer
Unknown
Mission
Spacecraft
Bus & Motor
Unknown
Mass
Unknown
Launch date (UTC)
1993-06-16 (33 years ago)
Launch vehicle
Unknown
Launch site
Plesetsk Missile And Space Complex (PKMTR)
Object type
Payload
Rocket body
Debris
Shape & HBR
Unknown shape, 0.1 m
Radar Cross Section
Small (<0.1 m²)

Expand to show TLE details & history
Last TLE update: 17 hours ago

TLE from 17 hours ago
0 COSMOS 2251 DEB
1 37483U 93036BLL 26061.54229589  .00000728  00000-0  21141-3 0  9994
2 37483  73.9763 354.4238 0093093 183.9559 176.0874 14.43716830664315
Epoch: 2026-03-02T13:00Z
TLE epoch observation values (Epoch: 2026-03-02T13:00:54.364Z)
Latitude
-0.00004°
Longitude
-1.13694°
Altitude
815.044 km
Speed
7.411 km/s
True Right ascension
23h 37m 41s
True Declination
0° 00' 00"
Sunlit
Object was in daylight at epoch
Visualization orbit readout
Latitude
Unknown
Longitude
Unknown
Altitude
Unknown
Speed
Unknown
Apparent Right ascension
Unknown
Apparent Declination
Unknown
Sunlit
N/A
Visualization observer readout
Local Sidereal Time
09:22:10
Azimuth
Unknown
Elevation
Unknown
Doppler factor
Unknown
Orbital elements
Apogee altitude
810.166 km
Perigee altitude
677.564 km
Semi-major axis
7,122.002 km
Eccentricity
0.00931
Inclination
73.9763°
RAAN
354.4238°
Arg. of periapsis
183.9559°
True anomaly
176.15935°
Mean anomaly
176.0874°
Eccentric anomaly
176.12346°
Mean motion
3.6111 °/min
Orbital period
99.69 mins
BSTAR
0.00021141
Loading maneuver chart data...
Computing Atmospheric mass density...

Documentation

Showing up to 5 results
|